This demonstration page uses our WeatherBlox Daily Observations layout. Learn more.

Left ArrowRight Arrow

Hourly Observations for November 26, 2021

Temp ( °F °C ) Dew Point ( °F °C ) Humidity (%) Winds ( mph kmh ) Pressure ( in mb ) Visibility ( mi km ) Precip ( " mm )
12:15 am 00:15 Cloudy with Light Rain 52 11 45 7 77 77 W 3 6 29.82 1010 10 16 N/A
12:35 am 00:35 Cloudy with Light Rain 52 11 45 7 77 77 NNW 5 7 29.80 1009 10 16 N/A
12:55 am 00:55 Cloudy with Light Rain 50 10 46 8 88 88 N N/A 29.82 1010 10 16 N/A
1:15 am 01:15 Cloudy with Rain 48 9 46 8 94 94 N N/A 29.81 1009 10 16 N/A
1:35 am 01:35 Cloudy with Light Rain 48 9 46 8 94 94 N N/A 29.81 1009 10 16 N/A
1:55 am 01:55 Cloudy with Light Rain 46 8 46 8 100 100 N N/A 29.80 1009 10 16 N/A
2:15 am 02:15 Cloudy 46 8 46 8 100 100 N N/A 29.80 1009 10 16 N/A
2:35 am 02:35 Cloudy 46 8 46 8 100 100 SW 5 7 29.79 1009 10 16 N/A
2:55 am 02:55 Mostly Cloudy 46 8 46 8 100 100 SW 5 7 29.79 1009 10 16 N/A
3:15 am 03:15 Partly Cloudy 45 7 45 7 100 100 N N/A 29.78 1008 10 16 N/A
3:35 am 03:35 Partly Cloudy 46 8 46 8 100 100 W 3 6 29.77 1008 10 16 N/A
3:55 am 03:55 Partly Cloudy 45 7 45 7 100 100 WNW 5 7 29.77 1008 10 16 N/A
4:15 am 04:15 Mostly Cloudy 46 8 45 7 93 93 WNW 7 11 29.77 1008 10 16 N/A
4:35 am 04:35 Partly Cloudy 46 8 43 6 87 87 NW 6 9 29.77 1008 10 16 N/A
4:55 am 04:55 Mostly Cloudy 48 9 43 6 82 82 NW 13 20 29.77 1008 10 16 N/A
5:15 am 05:15 Cloudy 50 10 43 6 76 76 NW 12 19 29.78 1008 10 16 N/A
5:35 am 05:35 Mostly Cloudy 50 10 41 5 71 71 NW 17 28 29.79 1009 10 16 N/A
5:55 am 05:55 Partly Cloudy 46 8 37 3 71 71 NW 24 39 29.80 1009 10 16 N/A
6:15 am 06:15 Mostly Cloudy 46 8 37 3 71 71 NW 24 39 29.81 1009 10 16 0.01 0.25
6:35 am 06:35 Partly Cloudy 45 7 37 3 76 76 WNW 18 30 29.83 1010 10 16 0.01 0.25
6:55 am 06:55 Partly Cloudy 45 7 37 3 76 76 WNW 16 26 29.84 1011 10 16 0.01 0.25
7:15 am 07:15 Partly Cloudy 43 6 37 3 81 81 NW 15 24 29.84 1011 10 16 N/A
7:35 am 07:35 Partly Cloudy 45 7 37 3 76 76 WNW 18 30 29.85 1011 10 16 N/A
7:55 am 07:55 Cloudy with Light Rain 41 5 37 3 87 87 WNW 21 33 29.87 1012 7 11 N/A
8:15 am 08:15 Cloudy 41 5 37 3 87 87 NW 14 22 29.88 1012 10 16 N/A
8:35 am 08:35 Cloudy 41 5 36 2 81 81 NW 17 28 29.89 1012 10 16 N/A
8:55 am 08:55 Partly Cloudy 41 5 34 1 76 76 NW 15 24 29.89 1012 10 16 N/A
9:15 am 09:15 Partly Cloudy 43 6 34 1 71 71 NNW 14 22 29.90 1013 10 16 N/A
9:35 am 09:35 Cloudy 43 6 32 undefined 66 66 NW 15 24 29.90 1013 10 16 N/A
9:55 am 09:55 Partly Cloudy 43 6 32 undefined 66 66 NNW 17 28 29.91 1013 10 16 N/A
10:15 am 10:15 Partly Cloudy 43 6 30 -1 61 61 NW 25 41 29.91 1013 10 16 N/A
10:35 am 10:35 Partly Cloudy 41 5 28 -2 61 61 WNW 23 37 29.92 1013 10 16 N/A
10:55 am 10:55 Sunny 43 6 28 -2 57 57 NW 35 56 29.90 1013 10 16 N/A
11:15 am 11:15 Sunny 43 6 25 -4 49 49 NNW 28 44 29.91 1013 10 16 N/A
11:35 am 11:35 Partly Cloudy 43 6 25 -4 49 49 NW 28 44 29.89 1012 10 16 N/A
11:55 am 11:55 Sunny 43 6 25 -4 49 49 NW 21 33 29.88 1012 10 16 N/A
12:35 pm 12:35 Sunny 43 6 23 -5 46 46 NNW 23 37 29.88 1012 10 16 N/A
12:55 pm 12:55 Sunny 43 6 23 -5 46 46 NNW 22 35 29.88 1012 10 16 N/A
1:15 pm 13:15 Sunny 43 6 25 -4 49 49 NW 25 41 29.88 1012 10 16 N/A
1:35 pm 13:35 Sunny 41 5 25 -4 53 53 NW 26 43 29.89 1012 10 16 N/A
1:55 pm 13:55 Partly Cloudy 43 6 25 -4 49 49 NNW 28 44 29.89 1012 10 16 N/A
2:15 pm 14:15 Mostly Cloudy 43 6 27 -3 53 53 NNW 24 39 29.89 1012 10 16 N/A
2:35 pm 14:35 Cloudy 41 5 25 -4 53 53 NW 22 35 29.92 1013 10 16 N/A
2:55 pm 14:55 Cloudy 41 5 25 -4 53 53 NW 16 26 29.94 1014 10 16 N/A
3:15 pm 15:15 Cloudy 39 4 25 -4 56 56 WNW 14 22 29.94 1014 10 16 N/A
3:35 pm 15:35 Cloudy 39 4 25 -4 56 56 NW 20 31 29.96 1014 10 16 N/A
3:55 pm 15:55 Cloudy 37 3 27 -3 65 65 WNW 20 31 29.97 1015 10 16 N/A
4:15 pm 16:15 Cloudy 37 3 25 -4 60 60 WNW 23 37 29.97 1015 10 16 N/A
4:35 pm 16:35 Cloudy 37 3 25 -4 60 60 NW 14 22 29.97 1015 10 16 N/A
4:55 pm 16:55 Mostly Cloudy 36 2 23 -5 60 60 WNW 15 24 29.97 1015 10 16 N/A
5:15 pm 17:15 Partly Cloudy 36 2 23 -5 60 60 WNW 13 20 29.97 1015 10 16 N/A
5:35 pm 17:35 Mostly Cloudy 36 2 23 -5 60 60 WNW 6 9 29.98 1015 10 16 N/A
5:55 pm 17:55 Cloudy 36 2 23 -5 60 60 NW 9 15 29.99 1016 10 16 N/A
6:15 pm 18:15 Cloudy 36 2 23 -5 60 60 WNW 9 15 29.99 1016 10 16 N/A
6:35 pm 18:35 Cloudy 36 2 23 -5 60 60 WNW 12 19 30.00 1016 10 16 N/A
6:55 pm 18:55 Cloudy 34 1 23 -5 65 65 WNW 16 26 29.99 1016 10 16 N/A
7:15 pm 19:15 Cloudy 34 1 23 -5 65 65 NW 16 26 29.99 1016 10 16 N/A
7:35 pm 19:35 Cloudy 34 1 23 -5 65 65 NW 14 22 29.99 1016 10 16 N/A
7:55 pm 19:55 Cloudy 34 1 23 -5 65 65 NW 8 13 29.99 1016 10 16 N/A
8:15 pm 20:15 Cloudy 34 1 23 -5 65 65 WNW 14 22 29.99 1016 10 16 N/A
8:35 pm 20:35 Cloudy 34 1 23 -5 65 65 WNW 12 19 29.99 1016 10 16 N/A
8:55 pm 20:55 Cloudy 34 1 23 -5 65 65 WNW 9 15 29.99 1016 10 16 N/A
9:15 pm 21:15 Cloudy 34 1 23 -5 65 65 WNW 12 19 29.99 1016 10 16 N/A
9:35 pm 21:35 Cloudy 34 1 23 -5 65 65 WNW 9 15 29.99 1016 10 16 N/A
9:55 pm 21:55 Cloudy 34 1 23 -5 65 65 W 12 19 29.99 1016 10 16 N/A
10:15 pm 22:15 Cloudy 34 1 23 -5 65 65 WNW 16 26 29.99 1016 10 16 N/A
10:35 pm 22:35 Cloudy 34 1 23 -5 65 65 WNW 17 28 29.98 1015 10 16 N/A
10:55 pm 22:55 Cloudy 34 1 23 -5 65 65 WNW 14 22 29.98 1015 10 16 N/A
11:15 pm 23:15 Cloudy 34 1 23 -5 65 65 WNW 20 31 29.98 1015 10 16 N/A
11:35 pm 23:35 Cloudy 34 1 23 -5 65 65 WNW 18 30 29.99 1016 10 16 N/A
11:55 pm 23:55 Cloudy 34 1 23 -5 65 65 WNW 18 30 29.99 1016 10 16 N/A

Powered by AerisWeather